AirNav   ProFlight Series 2 Aviation Headset
 
 455 users online  

9PS9 St Mary Medical Center Heliport
Langhorne, Pennsylvania, USA

GOING TO LANGHORNE?


FAA INFORMATION EFFECTIVE 16 JULY 2020

Location

FAA Identifier: 9PS9
Lat/Long: 40-12-07.9200N 074-55-22.5800W
40-12.132000N 074-55.376333W
40.2022000,-74.9229389
(estimated)
Elevation: 150 ft. / 46 m (estimated)
Variation: 12W (1995)
From city: 1 mile N of LANGHORNE, PA
Time zone: UTC -4 (UTC -5 during Standard Time)
Zip code: 19047

Heliport Operations

Heliport use: Private use. Permission required prior to landing
Activation date: 07/1997
Control tower: no
ARTCC: NEW YORK CENTER
FSS: WILLIAMSPORT FLIGHT SERVICE STATION
Attendance: CONTINUOUS
Wind indicator: yes
Segmented circle: yes
Lights: FOR PERIMETER LGTS CALL 215-750-7961.

Heliport Communications

WX ASOS at TTN (7 nm NE): 126.775 (609-538-8690)
WX ASOS at PNE (8 nm SW): 121.15 (215-677-0146)
WX ASOS at DYL (12 nm NW): 118.875 (215-345-0392)
WX ASOS at VAY (16 nm S): 119.325 (609-267-1176)
WX AWOS-3 at LOM (16 nm W): 118.925 (215-646-1068)

Nearby radio navigation aids

VOR radial/distance  VOR name  Freq  Var
ARDr203/3.1YARDLEY VOR/DME108.2010W
GXUr320/18.9MC GUIRE VORTAC110.6012W
RBVr280/19.6ROBBINSVILLE VORTAC113.8010W
SBJr210/24.3SOLBERG VOR/DME112.9010W
PTWr101/29.2POTTSTOWN VORTAC116.5009W
CYNr326/32.3COYLE VORTAC113.4010W
COLr270/35.6COLTS NECK VOR/DME115.4011W
BWZr198/36.1BROADWAY VOR/DME114.2011W
OODr037/38.2WOODSTOWN VORTAC112.8010W
MXEr073/38.3MODENA VORTAC113.2009W
FJCr152/39.7ALLENTOWN VORTAC117.5010W
VCNr013/39.9CEDAR LAKE VOR/DME115.2010W

 
NDB name  Hdg/Dist  Freq  Var  ID
AMBLER087/17.227512WING .. -. --.
LAKEHURST300/28.639611WNEL -. . .-..
CHATHAM228/39.425413WCAT -.-. .- -

Heliport Services

Runway Information

Helipad H1

Dimensions: 40 x 40 ft. / 12 x 12 m
Surface: concrete
Runway edge lights: PERI
Latitude: 40-12.132000N
Longitude: 074-55.376333W
Elevation: 150.0 ft.
Traffic pattern: leftleft

Heliport Ownership and Management from official FAA records

Ownership: Privately-owned
Owner: ST MARY MEDICAL CENTER
1201 LANGHORNE-NEWTOWN RD
LANGHORNE, PA 19047
Phone 215-710-4026
Manager: DIRECTOR PLANT OPERATIONS
1201 LANGHORNE - NEWTOWN RD
LANGHORNE, PA 19047
Phone 215-710-4026

Additional Remarks

A52-H1 HOSPITAL BLDGS W OF PAD.
FOR CD CTC PHILADELPHIA APCH AT 800-354-9884.
APP HDG 230 DEG, DEP HDG 050 DEG.

Instrument Procedures

There are no published instrument procedures at 9PS9.

Some nearby airports with instrument procedures:

KTTN - Trenton Mercer Airport (7 nm NE)
KPNE - Northeast Philadelphia Airport (8 nm SW)
KDYL - Doylestown Airport (12 nm NW)
N87 - Trenton-Robbinsville Airport (15 nm E)
KVAY - South Jersey Regional Airport (16 nm S)
KLOM - Wings Field Airport (16 nm W)
39N - Princeton Airport (17 nm NE)
N14 - Flying W Airport (17 nm S)
KWRI - McGuire Field (Joint Base Mc Guire Dix Lakehurst) Airport (19 nm SE)
 
Loc | Ops | Rwys | IFR | FBO | Links
Com | Nav | Svcs | Stats | Notes
Area around 9PS9 (St Mary Medical Center Heliport)
 
Road maps at: MapQuest Bing Google
 
Aerial photo
No photo
 
Sectional chart

 
Airport distance calculator
Flying to St Mary Medical Center Heliport? Find the distance to fly.

From to 9PS9

Sunrise and sunset
Times for 13-Aug-2020
 Local
(UTC-4)
 Zulu
(UTC)
Morning civil twilight05:4209:42
Sunrise06:1110:11
Sunset19:5823:58
Evening civil twilight20:2700:27

Current date and time
Zulu (UTC)  13-Aug-2020 06:29:03
Local (UTC-4)  13-Aug-2020 02:29:03
 
METAR
KTTN 
7nm NE 
ASOS 133.70 609-538-8690
130553Z AUTO 22003KT 9SM CLR 22/22 A3006 RMK AO2 SLP170 T02220217 10256 20222 58001
KPNE 
8nm SW 
130554Z AUTO 00000KT 10SM CLR 23/22 A3007 RMK AO2 SLP182 T02330222 10250 20222 50000
KDYL 
12nm NW 
130554Z AUTO 00000KT 10SM CLR 24/21 A3007 RMK AO2 SLP175 T02390211 10256 20233 50000
KLOM 
16nm W 
130615Z AUTO 00000KT 7SM CLR 22/22 A3007 RMK AO2 T02210220
KVAY 
17nm S 
ASOS 119.325 609-267-1176
130607Z AUTO 00000KT 5SM BR FEW001 22/22 A3005 RMK AO2 T02220222 $
KWRI 
19nm SE 
130616Z 00000KT 7/8SM R06/4000VP6000FT BR CLR 22/22 A3005 RMK AO2A SLP175 CHINO RWY24 $
TAF
KTTN 
7nm NE 
130521Z 1306/1406 VRB03KT P6SM SCT025 TEMPO 1309/1313 3SM BR OVC010 FM131300 VRB03KT P6SM BKN025 TEMPO 1313/1317 3SM SHRA BR OVC010 FM131700 22004KT P6SM BKN035 FM132000 VRB03KT P6SM VCTS BKN035CB FM140000 VRB03KT P6SM SCT045
KPNE 
8nm SW 
130521Z 1306/1406 VRB03KT P6SM SCT025 TEMPO 1309/1313 3SM BR OVC008 FM131300 VRB03KT P6SM BKN025 TEMPO 1313/1317 3SM SHRA BR OVC008 FM131700 22004KT P6SM BKN035 FM132000 VRB03KT P6SM VCTS BKN035CB FM140000 VRB03KT P6SM SCT045
KWRI 
19nm SE 
130200Z 1302/1408 VRB03KT 9999 SCT180 BKN250 QNH3006INS BECMG 1305/1306 VRB03KT 4800 BR SCT005 QNH3003INS BECMG 1309/1310 VRB02KT 2400 BR BKN004 QNH3003INS BECMG 1312/1313 06004KT 9999 NSW BKN020 QNH3007INS BECMG 1315/1316 07005KT 8000 -SHRA VCTS BKN035CB QNH3007INS TEMPO 1316/1321 4800 TSRA BKN025CB BECMG 1321/1322 08005KT 9999 NSW BKN040 OVC080 QNH3005INS BECMG 1402/1403 09003KT 6000 BR BKN015 OVC030 QNH3010INS TX28/1319Z TN22/1310Z
NOTAMs
Click for the latest NOTAMs
NOTAMs are issued by the DoD/FAA and will open in a separate window not controlled by AirNav.

 

 
 

Would you like to see your business listed on this page?

 If your business provides an interesting product or service to pilots, flight crews, aircraft, or users of the St Mary Medical Center Heliport, you should consider listing it here.  To start the listing process, click on the button below
 
Add a business
 

Other Pages about St Mary Medical Center Heliport

Update a link
 
Copyright © AirNav, LLC. All rights reserved. Privacy Policy  Contact